[[{"header":{"parameterUnit":"m.s-1","parameterCategory":1,"la1":30.2991,"la2":30.254,"lo1":-89.0895,"lo2":-89.0444,"dy":0.0017,"dx":0.0017,"nx":28,"ny":28,"refTime":"2024-04-07T09:00:00:Z","depth":0,"parameterNumber":2,"parameterNumberName":"U-component_of_WINDS"},"data":[0,0,0,0,0,0,0,0,0,0,0,0,0,0,0,0,0,0,0,0,0,0,0,0,0,0,0,0,0,0,0,0,0,0,0,0,0,0,0,0,0,0,0,0,0,0,0,0,0,0,0,0,0,0,0,0,0,0,-5.082,-5.0822,0,-5.0995,-5.0997,-5.0999,-5.1044,-5.1043,-5.1041,-5.104,-5.1218,-5.1224,-5.123,0,0,0,0,0,0,0,0,0,0,0,0,0,-5.0524,-5.0529,-5.082,-5.0822,-5.0824,-5.0995,-5.0997,-5.1,-5.1044,-5.1043,-5.1041,-5.104,-5.1216,-5.1223,-5.123,0,0,0,0,0,0,0,0,0,0,0,0,0,-5.0671,-5.0531,-5.082,-5.0867,-5.0873,-5.0995,-5.0998,-5.1001,-5.1044,-5.1042,-5.1041,-5.1039,-5.1214,-5.1223,-5.1231,-5.1318,0,0,-5.1258,-5.1261,0,0,0,0,0,0,0,0,-5.0662,-5.0682,-5.0858,-5.0864,-5.0871,-5.0996,-5.0958,-5.1107,-5.1045,-5.0979,-5.104,-5.1038,-5.1146,-5.116,-5.1196,-5.1326,-5.1334,-5.1258,-5.1264,-5.1267,-5.127,0,0,0,0,0,0,0,-5.0652,-5.0674,-5.0889,-5.086,-5.0868,-5.088,-5.0899,-5.0987,-5.1069,-5.0985,-5.0988,-5.1009,-5.1149,-5.1188,-5.1201,-5.1336,-5.1258,-5.1266,-5.1271,-5.1275,-5.1547,-5.1549,0,0,0,0,0,0,-5.0634,-5.0666,-5.0884,-5.0895,-5.0761,-5.0886,-5.0908,-5.0957,-5.1069,-5.1084,-5.101,-5.101,-5.1174,-5.1191,-5.1207,-5.1315,-5.1267,-5.1275,-5.128,-5.1545,-5.1547,-5.1549,0,0,0,0,0,0,-5.0627,-5.0653,-5.0877,-5.0781,-5.0811,-5.0893,-5.0949,-5.0962,-5.1001,-5.1088,-5.1103,-5.1034,-5.1173,-5.1195,-5.129,-5.1322,-5.1279,-5.1287,-5.1542,-5.1546,-5.1548,-5.1533,0,0,0,0,0,0,-5.0619,-5.065,-5.0684,-5.0782,-5.0816,-5.0956,-5.0951,-5.0966,-5.1016,-5.1018,-5.1115,-5.1129,-5.1174,-5.1277,-5.1299,-5.1333,-5.1294,-5.154,-5.1544,-5.1547,-5.153,-5.1535,-5.1538,0,0,0,0,0,-5.0608,-5.0672,-5.0685,-5.0711,-5.0859,-5.0958,-5.0978,-5.1028,-5.1018,-5.1052,-5.1109,-5.1126,-5.1316,-5.1286,-5.1311,-5.1349,-5.1538,-5.1543,-5.1547,-5.1529,-5.1534,-5.1538,0,0,0,0,0,0,-5.0574,-5.0685,-5.0701,-5.0799,-5.0869,-5.0965,-5.101,-5.1032,-5.1105,-5.1104,-5.1163,-5.1185,-5.1276,-5.1323,-5.1288,-5.1439,-5.1427,-5.1437,-5.1404,-5.141,-5.1414,-5.1399,-5.1301,0,0,0,0,0,-5.0579,-5.065,-5.0743,-5.082,-5.0855,-5.0926,-5.0972,-5.1005,-5.1079,-5.1109,-5.1172,-5.1243,-5.1319,-5.1368,-5.1443,-5.1539,-5.156,-5.1577,-5.1581,-5.1584,-5.1591,-5.1645,-5.1653,-5.1565,-5.1565,-5.1564,0,0,-5.0587,-5.0657,-5.0698,-5.0815,-5.0873,-5.0946,-5.0951,-5.1027,-5.1081,-5.112,-5.1213,-5.1263,-5.1347,-5.1443,-5.1488,-5.1484,-5.1621,-5.159,-5.1591,-5.1597,-5.1651,-5.1659,-5.1666,-5.1568,-5.1567,-5.1567,0,0,-5.0639,-5.07,-5.0771,-5.0829,-5.0918,-5.0966,-5.0983,-5.1077,-5.1111,-5.1206,-5.1237,-5.1303,-5.1433,-5.1491,-5.1538,-5.1616,-5.1634,-5.1639,-5.1658,-5.171,-5.1717,-5.1724,-5.175,-5.1759,-5.1646,-5.1646,-5.1646,0,-5.0639,-5.0749,-5.0804,-5.0879,-5.093,-5.0971,-5.1043,-5.1097,-5.1205,-5.1239,-5.1234,-5.1398,-5.1458,-5.1568,-5.1587,-5.1624,-5.1645,-5.1626,-5.1712,-5.1719,-5.1726,-5.1752,-5.1762,-5.1646,-5.1646,-5.1646,-5.1646,0,-5.0743,-5.082,-5.0867,-5.0971,-5.1027,-5.11,-5.1166,-5.1217,-5.1247,-5.1295,-5.1392,-5.1465,-5.1555,-5.1585,-5.1614,-5.17,-5.1695,-5.17,-5.1689,-5.1733,-5.1758,-5.1769,-5.1646,-5.1646,-5.1646,-5.1646,0,0,-5.0776,-5.0912,-5.0927,-5.0975,-5.1077,-5.1137,-5.1214,-5.1303,-5.1344,-5.1419,-5.1483,-5.1594,-5.16,-5.1653,-5.169,-5.1736,-5.1792,-5.1736,-5.1739,-5.1742,-5.189,-5.1884,-5.1894,-5.1806,-5.1809,-5.181,-5.1883,0,-5.0839,-5.0976,-5.1029,-5.114,-5.1211,-5.1252,-5.1318,-5.1388,-5.1436,-5.1504,-5.1557,-5.1634,-5.1637,-5.1669,-5.1717,-5.1775,-5.1822,-5.1771,-5.1866,-5.1868,-5.184,-5.1908,-5.1901,-5.1965,-5.1893,-5.1895,-5.1896,0,-5.0931,-5.1006,-5.1125,-5.1219,-5.1251,-5.1309,-5.1396,-5.146,-5.1541,-5.1573,-5.1633,-5.1668,-5.1749,-5.1735,-5.1848,-5.1811,-5.1854,-5.1889,-5.1893,-5.1901,-5.1883,-5.1916,-5.1987,-5.1996,-5.1913,-5.1911,-5.191,0,-5.094,-5.1072,-5.116,-5.12,-5.1313,-5.1353,-5.1402,-5.1481,-5.1532,-5.1608,-5.1641,-5.1726,-5.1772,-5.1837,-5.1893,-5.1878,-5.2001,-5.1991,-5.2028,-5.2027,-5.2049,-5.2047,-5.2126,-5.2081,-5.2081,-5.2081,-5.2081,0,-5.1004,-5.1074,-5.1166,-5.122,-5.13,-5.1361,-5.1439,-5.1491,-5.1561,-5.1626,-5.1668,-5.1727,-5.18,-5.1869,-5.1914,-5.2,-5.2021,-5.2048,-5.2059,-5.2043,-5.2039,-5.207,-5.2066,-5.2084,-5.2083,-5.2082,-5.2082,0,-5.1027,-5.1092,-5.119,-5.1289,-5.1316,-5.1371,-5.1456,-5.151,-5.1561,-5.1642,-5.1665,-5.1745,-5.1829,-5.1893,-5.2002,-5.2032,-5.2123,-5.2136,-5.2095,-5.21,-5.2133,-5.2129,-5.2233,-5.225,-5.2195,-5.2195,-5.2196,0,-5.1062,-5.1117,-5.1223,-5.127,-5.1318,-5.1393,-5.1445,-5.1509,-5.1561,-5.1659,-5.1701,-5.1788,-5.186,-5.1993,-5.2061,-5.2145,-5.2158,-5.2189,-5.2171,-5.2153,-5.2156,-5.2151,-5.2157,-5.219,-5.2191,-5.2191,-5.2191,0,-5.1117,-5.1147,-5.1221,-5.1306,-5.1368,-5.1438,-5.151,-5.1545,-5.1622,-5.1679,-5.1766,-5.1822,-5.1934,-5.202,-5.2111,-5.2162,-5.2189,-5.2197,-5.221,-5.2193,-5.2166,-5.218,-5.21,-5.2193,-5.2193,-5.2193,-5.2193,-5.2193,-5.1146,-5.1197,-5.128,-5.1361,-5.1422,-5.1488,-5.1543,-5.1603,-5.1676,-5.1772,-5.1806,-5.1895,-5.1976,-5.2101,-5.2153,-5.2224,-5.2224,-5.2243,-5.2247,-5.225,-5.2248,-5.2158,-5.2241,-5.2241,-5.2241,-5.2241,-5.2241,0,-5.1202,-5.1258,-5.1332,-5.1431,-5.1495,-5.1517,-5.1598,-5.165,-5.1728,-5.1801,-5.1872,-5.1972,-5.2056,-5.2132,-5.222,-5.2262,-5.2277,-5.2283,-5.2279,-5.229,-5.2243,-5.2223,-5.2269,-5.2269,-5.2269,-5.2269,-5.2269,-5.2269,-5.1238,-5.1325,-5.1365,-5.1483,-5.1539,-5.1627,-5.1671,-5.1732,-5.1791,-5.1901,-5.1971,-5.2021,-5.2096,-5.2189,-5.2268,-5.2288,-5.2317,-5.232,-5.2343,-5.2297,-5.2293,-5.229,-5.227,-5.2326,-5.2326,-5.2383,-5.2384,-5.2384]},{"header":{"parameterUnit":"m.s-1","parameterCategory":1,"la1":30.2991,"la2":30.254,"lo1":-89.0895,"lo2":-89.0444,"dy":0.0017,"dx":0.0017,"nx":28,"ny":28,"refTime":"2024-04-07T09:00:00:Z","depth":0,"parameterNumber":3,"parameterNumberName":"V-component_of_WINDS"},"data":[0,0,0,0,0,0,0,0,0,0,0,0,0,0,0,0,0,0,0,0,0,0,0,0,0,0,0,0,0,0,0,0,0,0,0,0,0,0,0,0,0,0,0,0,0,0,0,0,0,0,0,0,0,0,0,0,0,0,4.0146,4.0146,0,4.0212,4.0213,4.0214,4.0308,4.031,4.0311,4.0313,4.0375,4.0375,4.0375,0,0,0,0,0,0,0,0,0,0,0,0,0,4.0097,4.0097,4.0146,4.0146,4.0147,4.0212,4.0213,4.0214,4.0308,4.031,4.0312,4.0314,4.0375,4.0375,4.0375,0,0,0,0,0,0,0,0,0,0,0,0,0,4.0136,4.0097,4.0145,4.0202,4.0208,4.0212,4.0213,4.0214,4.0307,4.031,4.0312,4.0315,4.0375,4.0375,4.0375,4.0327,0,0,4.0376,4.0376,0,0,0,0,0,0,0,0,4.0133,4.0138,4.0193,4.0198,4.0205,4.0255,4.0219,4.0252,4.0307,4.0269,4.0313,4.0316,4.0333,4.0336,4.0343,4.033,4.0333,4.0376,4.0376,4.0376,4.0376,0,0,0,0,0,0,0,4.0131,4.0135,4.0172,4.0194,4.0201,4.0223,4.0231,4.0225,4.0286,4.0273,4.028,4.0287,4.0336,4.0343,4.0345,4.0334,4.0376,4.0376,4.0376,4.0376,4.0287,4.0284,0,0,0,0,0,0,4.012,4.0132,4.017,4.0174,4.0175,4.0222,4.0231,4.0236,4.0287,4.0297,4.0285,4.0291,4.0341,4.0345,4.0348,4.0297,4.0376,4.0376,4.0376,4.0289,4.0286,4.0283,0,0,0,0,0,0,4.0119,4.0123,4.0167,4.0155,4.0162,4.022,4.0225,4.0236,4.0243,4.0296,4.0306,4.028,4.0343,4.0348,4.0333,4.03,4.0376,4.0376,4.0292,4.0288,4.0285,4.0193,0,0,0,0,0,0,4.0117,4.0122,4.0105,4.0154,4.0163,4.0151,4.0223,4.0235,4.0244,4.0252,4.0294,4.0304,4.0346,4.0332,4.0333,4.0302,4.0377,4.0295,4.029,4.0286,4.0199,4.0186,4.0175,0,0,0,0,0,4.0115,4.0074,4.0103,4.0107,4.0143,4.0149,4.0154,4.0205,4.024,4.0224,4.0258,4.0302,4.0303,4.0329,4.0331,4.03,4.0297,4.0292,4.0286,4.0204,4.0189,4.0176,0,0,0,0,0,0,4.0017,4.0082,4.0115,4.0089,4.0113,4.0165,4.0145,4.0186,4.02,4.0207,4.0268,4.0276,4.0254,4.0275,4.0303,4.0257,4.0307,4.0302,4.0244,4.023,4.0218,4.0214,4.0377,0,0,0,0,0,3.9992,3.9994,4.005,4.0021,4.0032,4.0087,4.0091,4.0129,4.0155,4.0165,4.0199,4.0221,4.0228,4.023,4.0238,4.0202,4.0213,4.0182,4.017,4.016,4.0155,4.0139,4.0127,4.0265,4.0265,4.0265,0,0,3.9941,3.9977,3.9974,4.0003,4.0026,4.0025,4.0094,4.009,4.009,4.0164,4.0153,4.0178,4.0208,4.0183,4.0173,4.02,4.0119,4.0153,4.0145,4.0145,4.0132,4.0119,4.0107,4.0261,4.0262,4.0263,0,0,3.9849,3.9876,3.9857,3.9879,3.9915,3.9951,3.9946,3.9993,4.0014,4.0004,4.006,4.006,4.0068,4.0088,4.0099,4.0016,4.0058,4.0017,3.9956,3.994,3.9929,3.992,3.9892,3.9881,4.0011,4.0011,4.0011,0,3.9781,3.9784,3.9841,3.9834,3.9846,3.9915,3.9896,3.9915,3.995,3.9955,3.9985,3.9999,4.0024,4.0005,3.9986,3.9992,3.9988,4.0012,3.9927,3.9918,3.991,3.9884,3.9873,4.0006,4.0006,4.0007,4.0007,0,3.9699,3.97,3.968,3.9715,3.9724,3.9711,3.9765,3.9767,3.9804,3.9837,3.9827,3.986,3.9877,3.9875,3.9909,3.9862,3.9878,3.9916,3.9968,3.9891,3.9867,3.9857,3.9999,4.0,4.0002,4.0003,0,0,3.9545,3.9615,3.9606,3.9624,3.9669,3.9671,3.9661,3.968,3.9681,3.9703,3.9696,3.9703,3.974,3.9752,3.9789,3.9776,3.971,3.9816,3.9818,3.9796,3.9662,3.9633,3.9621,3.9738,3.9737,3.9735,3.966,0,3.9462,3.9452,3.9504,3.9479,3.9481,3.9548,3.954,3.9566,3.9597,3.9603,3.9636,3.9641,3.9688,3.9696,3.9686,3.972,3.9684,3.9726,3.9732,3.9732,3.9724,3.9608,3.9578,3.9505,3.9651,3.9649,3.9648,0,3.9364,3.9384,3.936,3.9409,3.9412,3.9404,3.9427,3.9431,3.9462,3.9486,3.9501,3.9545,3.9539,3.9588,3.958,3.9607,3.9613,3.963,3.9629,3.9632,3.9686,3.9609,3.9483,3.9472,3.9634,3.9635,3.9636,0,3.9257,3.9277,3.9267,3.9279,3.9335,3.9328,3.9351,3.9385,3.9394,3.9413,3.942,3.9436,3.9446,3.9458,3.9505,3.9537,3.9492,3.9545,3.9511,3.951,3.9499,3.9499,3.9373,3.9501,3.9501,3.9501,3.9501,0,3.916,3.9143,3.922,3.9213,3.9196,3.9256,3.9237,3.9266,3.9296,3.9295,3.9353,3.9351,3.9414,3.9419,3.9456,3.9444,3.9447,3.9466,3.9477,3.9462,3.946,3.9467,3.9474,3.9498,3.9499,3.9499,3.95,0,3.9037,3.9088,3.9081,3.9135,3.9149,3.9134,3.918,3.9176,3.9212,3.921,3.9213,3.9268,3.9277,3.9326,3.9345,3.9371,3.9346,3.9366,3.9336,3.9343,3.9308,3.9311,3.9183,3.9169,3.9304,3.9302,3.9301,0,3.8972,3.8961,3.9016,3.9021,3.9042,3.9049,3.9059,3.9117,3.9125,3.9161,3.9152,3.9167,3.9181,3.9192,3.9233,3.9249,3.927,3.9224,3.9273,3.9259,3.9271,3.9272,3.9272,3.9214,3.9212,3.921,3.9209,0,3.8853,3.8879,3.8893,3.8915,3.8927,3.8946,3.897,3.897,3.9035,3.9041,3.9052,3.9063,3.9085,3.9098,3.9122,3.9144,3.9187,3.9194,3.9187,3.9173,3.9157,3.9167,3.9309,3.9196,3.9198,3.9199,3.9199,3.92,3.8758,3.8753,3.8791,3.8804,3.8829,3.885,3.8849,3.8886,3.8897,3.8921,3.8954,3.8961,3.8994,3.903,3.9049,3.9054,3.9079,3.9069,3.9067,3.9064,3.9057,3.9155,3.9058,3.9059,3.9059,3.906,3.906,0,3.8643,3.8672,3.8684,3.8716,3.8727,3.8769,3.8797,3.8803,3.8809,3.8837,3.8851,3.8865,3.8879,3.8922,3.894,3.8936,3.8957,3.8939,3.894,3.8945,3.9033,3.9038,3.8922,3.8922,3.8923,3.8923,3.8923,3.8923,3.8585,3.8578,3.8609,3.8615,3.8643,3.8653,3.8666,3.8685,3.8708,3.8722,3.8735,3.8763,3.8797,3.8819,3.8833,3.8845,3.885,3.8826,3.8844,3.8926,3.8939,3.8951,3.8956,3.8826,3.8826,3.8757,3.8756,3.8756]}]]